| time (UTC) | temp F | wind direction | speed MPH | gust MPH | rain 1hr in | rain 24hr in | rain mn in | humidity % | barometer mb |
| 20260507210830 | 58 | 230 | 3.0 | 3.0 | 0.00 | 0.00 | 0.00 | 24 | 1009.9 |
| 20260507210327 | 57 | 231 | 3.0 | 5.0 | 0.00 | 0.00 | 0.00 | 26 | 1009.7 |
| 20260507205823 | 56 | 245 | 4.0 | 7.0 | 0.00 | 0.00 | 0.00 | 26 | 1010.0 |
| 20260507205321 | 57 | 261 | 1.0 | 6.0 | 0.00 | 0.00 | 0.00 | 26 | 1010.0 |
| 20260507204816 | 57 | 223 | 3.0 | 6.0 | 0.00 | 0.00 | 0.00 | 25 | 1010.3 |
| 20260507204314 | 57 | 273 | 2.0 | 5.0 | 0.00 | 0.00 | 0.00 | 25 | 1010.1 |
| 20260507203812 | 55 | 187 | 1.0 | 7.0 | 0.00 | 0.00 | 0.00 | 26 | 1010.1 |
| 20260507203309 | 56 | 270 | 1.0 | 5.0 | 0.00 | 0.00 | 0.00 | 25 | 1010.2 |
| 20260507202805 | 56 | 286 | 2.0 | 8.0 | 0.00 | 0.00 | 0.00 | 25 | 1010.3 |
| 20260507202306 | 57 | 321 | 3.0 | 7.0 | 0.00 | 0.00 | 0.00 | 25 | 1010.3 |
| 20260507201756 | 56 | 247 | 1.0 | 8.0 | 0.00 | 0.00 | 0.00 | 25 | 1010.4 |
| 20260507201253 | 56 | 284 | 5.0 | 7.0 | 0.00 | 0.00 | 0.00 | 25 | 1010.5 |
| 20260507200750 | 55 | 278 | 3.0 | 7.0 | 0.00 | 0.00 | 0.00 | 26 | 1010.4 |
| 20260507200246 | 55 | 231 | 1.0 | 2.0 | 0.00 | 0.00 | 0.00 | 25 | 1010.5 |
| 20260507195742 | 56 | 332 | 3.0 | 7.0 | 0.00 | 0.00 | 0.00 | 26 | 1010.8 |
| 20260507195239 | 57 | 269 | 4.0 | 7.0 | 0.00 | 0.00 | 0.00 | 26 | 1010.4 |
| 20260507194737 | 55 | 253 | 1.0 | 6.0 | 0.00 | 0.00 | 0.00 | 25 | 1010.4 |
| 20260507194232 | 54 | 244 | 3.0 | 5.0 | 0.00 | 0.00 | 0.00 | 29 | 1010.4 |
| 20260507193729 | 55 | 242 | 4.0 | 7.0 | 0.00 | 0.00 | 0.00 | 26 | 1010.7 |
| 20260507193226 | 55 | 289 | 3.0 | 10.0 | 0.00 | 0.00 | 0.00 | 25 | 1010.6 |
| 20260507192722 | 55 | 282 | 3.0 | 6.0 | 0.00 | 0.00 | 0.00 | 25 | 1010.7 |
| 20260507192219 | 55 | 310 | 4.0 | 6.0 | 0.00 | 0.00 | 0.00 | 27 | 1010.6 |
| 20260507191715 | 55 | 268 | 2.0 | 3.0 | 0.00 | 0.00 | 0.00 | 27 | 1010.7 |
| 20260507191212 | 55 | 279 | 2.0 | 7.0 | 0.00 | 0.00 | 0.00 | 26 | 1010.7 |
| 20260507190709 | 54 | 276 | 1.0 | 3.0 | 0.00 | 0.00 | 0.00 | 27 | 1010.8 |
| 20260507190208 | 53 | 245 | 2.0 | 9.0 | 0.00 | 0.00 | 0.00 | 29 | 1010.8 |
| 20260507185706 | 54 | 60 | 3.0 | 6.0 | 0.00 | 0.00 | 0.00 | 28 | 1010.8 |
| 20260507185202 | 53 | 282 | 3.0 | 8.0 | 0.00 | 0.00 | 0.00 | 31 | 1010.8 |
| 20260507184700 | 53 | 28 | 6.0 | 7.0 | 0.00 | 0.00 | 0.00 | 29 | 1010.7 |
| 20260507184158 | 53 | 260 | 1.0 | 5.0 | 0.00 | 0.00 | 0.00 | 28 | 1010.7 |
| 20260507183653 | 54 | 324 | 3.0 | 3.0 | 0.00 | 0.00 | 0.00 | 29 | 1010.8 |
| 20260507183151 | 53 | 34 | 2.0 | 3.0 | 0.00 | 0.00 | 0.00 | 30 | 1010.9 |
| 20260507182648 | 53 | 295 | 4.0 | 6.0 | 0.00 | 0.00 | 0.00 | 29 | 1011.0 |
| 20260507182143 | 53 | 273 | 4.0 | 7.0 | 0.00 | 0.00 | 0.00 | 29 | 1011.1 |
| 20260507181640 | 54 | 5 | 3.0 | 5.0 | 0.00 | 0.00 | 0.00 | 31 | 1010.9 |
| 20260507181136 | 53 | 270 | 5.0 | 6.0 | 0.00 | 0.00 | 0.00 | 31 | 1011.1 |
| 20260507180633 | 53 | 252 | 2.0 | 8.0 | 0.00 | 0.00 | 0.00 | 30 | 1010.9 |
| 20260507180130 | 52 | 49 | 3.0 | 6.0 | 0.00 | 0.00 | 0.00 | 31 | 1010.9 |
| 20260507175626 | 51 | 16 | 3.0 | 6.0 | 0.00 | 0.00 | 0.00 | 32 | 1011.0 |
| 20260507175123 | 53 | 290 | 2.0 | 7.0 | 0.00 | 0.00 | 0.00 | 31 | 1011.1 |
| 20260507174620 | 51 | 76 | 1.0 | 3.0 | 0.00 | 0.00 | 0.00 | 32 | 1011.1 |
| 20260507174118 | 52 | 223 | 2.0 | 2.0 | 0.00 | 0.00 | 0.00 | 32 | 1011.0 |
| 20260507173615 | 51 | 296 | 3.0 | 5.0 | 0.00 | 0.00 | 0.00 | 31 | 1011.4 |
| 20260507173112 | 51 | 321 | 4.0 | 7.0 | 0.00 | 0.00 | 0.00 | 32 | 1011.5 |
| 20260507172608 | 51 | 206 | 0.0 | 3.0 | 0.00 | 0.00 | 0.00 | 32 | 1011.4 |
| 20260507172106 | 51 | 33 | 3.0 | 8.0 | 0.00 | 0.00 | 0.00 | 31 | 1011.5 |
| 20260507171600 | 51 | 18 | 3.0 | 10.0 | 0.00 | 0.00 | 0.00 | 31 | 1011.4 |
| 20260507171058 | 51 | 60 | 4.0 | 8.0 | 0.00 | 0.00 | 0.00 | 32 | 1011.7 |
| 20260507170555 | 51 | 8 | 3.0 | 3.0 | 0.00 | 0.00 | 0.00 | 32 | 1011.6 |
| 20260507170051 | 50 | 75 | 6.0 | 9.0 | 0.00 | 0.00 | 0.00 | 31 | 1011.6 |
| 20260507165547 | 50 | 342 | 5.0 | 7.0 | 0.00 | 0.00 | 0.00 | 32 | 1011.8 |
| 20260507165038 | 51 | 273 | 3.0 | 9.0 | 0.00 | 0.00 | 0.00 | 32 | 1011.7 |
| 20260507164534 | 50 | 279 | 4.0 | 5.0 | 0.00 | 0.00 | 0.00 | 33 | 1011.8 |
| 20260507164031 | 50 | 42 | 4.0 | 8.0 | 0.00 | 0.00 | 0.00 | 34 | 1011.8 |
| 20260507163528 | 50 | 308 | 2.0 | 3.0 | 0.00 | 0.00 | 0.00 | 34 | 1011.7 |
| 20260507163026 | 51 | 320 | 3.0 | 8.0 | 0.00 | 0.00 | 0.00 | 34 | 1011.9 |
| 20260507162521 | 50 | 276 | 2.0 | 7.0 | 0.00 | 0.00 | 0.00 | 36 | 1011.8 |
| 20260507162018 | 50 | 351 | 2.0 | 6.0 | 0.00 | 0.00 | 0.00 | 34 | 1011.8 |
| 20260507161514 | 50 | 309 | 3.0 | 3.0 | 0.00 | 0.00 | 0.00 | 36 | 1011.9 |
| 20260507161012 | 49 | 53 | 5.0 | 7.0 | 0.00 | 0.00 | 0.00 | 36 | 1012.1 |
| 20260507160507 | 48 | 306 | 7.0 | 8.0 | 0.00 | 0.00 | 0.00 | 37 | 1012.0 |
| 20260507160004 | 48 | 7 | 0.0 | 5.0 | 0.00 | 0.00 | 0.00 | 37 | 1011.9 |
| 20260507155459 | 49 | 81 | 4.0 | 8.0 | 0.00 | 0.00 | 0.00 | 37 | 1012.2 |
| 20260507154956 | 48 | 49 | 5.0 | 8.0 | 0.00 | 0.00 | 0.00 | 36 | 1012.1 |
| 20260507154453 | 48 | 26 | 3.0 | 5.0 | 0.00 | 0.00 | 0.00 | 36 | 1012.1 |
| 20260507153950 | 48 | 57 | 5.0 | 7.0 | 0.00 | 0.00 | 0.00 | 36 | 1012.2 |
| 20260507153447 | 48 | 33 | 5.0 | 6.0 | 0.00 | 0.00 | 0.00 | 37 | 1012.2 |
| 20260507152943 | 48 | 266 | 2.0 | 6.0 | 0.00 | 0.00 | 0.00 | 39 | 1012.1 |
| 20260507152439 | 46 | 43 | 3.0 | 6.0 | 0.00 | 0.00 | 0.00 | 40 | 1012.2 |
| 20260507151936 | 48 | 51 | 1.0 | 3.0 | 0.00 | 0.00 | 0.00 | 38 | 1012.3 |
| 20260507151432 | 47 | 47 | 5.0 | 8.0 | 0.00 | 0.00 | 0.00 | 38 | 1012.2 |
| 20260507150929 | 47 | 294 | 1.0 | 3.0 | 0.00 | 0.00 | 0.00 | 39 | 1012.3 |
| 20260507150426 | 47 | 168 | 0.0 | 2.0 | 0.00 | 0.00 | 0.00 | 41 | 1012.2 |
| 20260507145922 | 47 | 316 | 3.0 | 5.0 | 0.00 | 0.00 | 0.00 | 43 | 1012.2 |
| 20260507145418 | 47 | 13 | 2.0 | 2.0 | 0.00 | 0.00 | 0.00 | 45 | 1012.1 |
| 20260507144915 | 46 | 314 | 4.0 | 6.0 | 0.00 | 0.00 | 0.00 | 45 | 1012.3 |
| 20260507144412 | 46 | 58 | 4.0 | 5.0 | 0.00 | 0.00 | 0.00 | 45 | 1012.3 |
| 20260507143909 | 45 | 60 | 3.0 | 6.0 | 0.00 | 0.00 | 0.00 | 47 | 1012.3 |
| 20260507143407 | 45 | 46 | 1.0 | 6.0 | 0.00 | 0.00 | 0.00 | 48 | 1012.4 |
| 20260507142903 | 46 | 294 | 3.0 | 6.0 | 0.00 | 0.00 | 0.00 | 50 | 1012.4 |
| 20260507142359 | 46 | 241 | 1.0 | 3.0 | 0.00 | 0.00 | 0.00 | 49 | 1012.3 |
| 20260507141856 | 45 | 213 | 2.0 | 2.0 | 0.00 | 0.00 | 0.00 | 51 | 1012.5 |
| 20260507141352 | 45 | 311 | 2.0 | 3.0 | 0.00 | 0.00 | 0.00 | 50 | 1012.4 |
| 20260507140849 | 45 | 277 | 1.0 | 2.0 | 0.00 | 0.00 | 0.00 | 51 | 1012.6 |
| 20260507140346 | 45 | 44 | 3.0 | 5.0 | 0.00 | 0.00 | 0.00 | 52 | 1012.8 |
| 20260507135844 | 44 | 15 | 2.0 | 3.0 | 0.00 | 0.00 | 0.00 | 55 | 1012.6 |
| 20260507135340 | 46 | 48 | 2.0 | 3.0 | 0.00 | 0.00 | 0.00 | 52 | 1012.5 |
| 20260507134838 | 45 | 230 | 0.0 | 1.0 | 0.00 | 0.00 | 0.00 | 54 | 1012.8 |
| 20260507134333 | 45 | 245 | 1.0 | 1.0 | 0.00 | 0.00 | 0.00 | 54 | 1012.9 |
| 20260507133830 | 44 | 304 | 1.0 | 1.0 | 0.00 | 0.00 | 0.00 | 58 | 1012.8 |
| 20260507133325 | 43 | 209 | 0.0 | 1.0 | 0.00 | 0.00 | 0.00 | 58 | 1013.0 |
| 20260507132824 | 42 | 272 | 0.0 | 1.0 | 0.00 | 0.00 | 0.00 | 61 | 1012.5 |
| 20260507132320 | 42 | 237 | 0.0 | 1.0 | 0.00 | 0.00 | 0.00 | 63 | 1012.9 |
| 20260507131818 | 41 | 254 | 1.0 | 1.0 | 0.00 | 0.00 | 0.00 | 65 | 1012.9 |
| 20260507131314 | 40 | 216 | 0.0 | 0.0 | 0.00 | 0.00 | 0.00 | 68 | 1012.9 |
| 20260507130810 | 40 | 216 | 1.0 | 1.0 | 0.00 | 0.00 | 0.00 | 67 | 1013.0 |
| 20260507130308 | 40 | 216 | 0.0 | 0.0 | 0.00 | 0.00 | 0.00 | 68 | 1013.0 |
| 20260507125807 | 39 | 216 | 0.0 | 1.0 | 0.00 | 0.00 | 0.00 | 69 | 1012.9 |
| 20260507125306 | 39 | 216 | 0.0 | 0.0 | 0.00 | 0.00 | 0.00 | 69 | 1012.9 |
| 20260507124801 | 38 | 215 | 0.0 | 0.0 | 0.00 | 0.00 | 0.00 | 72 | 1013.0 |
| 20260507124257 | 37 | 215 | 0.0 | 1.0 | 0.00 | 0.00 | 0.00 | 73 | 1013.0 |
| 20260507123756 | 37 | 215 | 0.0 | 1.0 | 0.00 | 0.00 | 0.00 | 73 | 1013.1 |
| 20260507123253 | 36 | 214 | 0.0 | 1.0 | 0.00 | 0.00 | 0.00 | 74 | 1013.2 |
| 20260507122748 | 35 | 219 | 1.0 | 1.0 | 0.00 | 0.00 | 0.00 | 75 | 1013.0 |
| 20260507122244 | 34 | 219 | 0.0 | 1.0 | 0.00 | 0.00 | 0.00 | 77 | 1013.0 |
| 20260507121740 | 34 | 219 | 0.0 | 1.0 | 0.00 | 0.00 | 0.00 | 78 | 1013.1 |
| 20260507121236 | 33 | 220 | 0.0 | 1.0 | 0.00 | 0.00 | 0.00 | 79 | 1013.2 |
| 20260507120732 | 33 | 220 | 0.0 | 1.0 | 0.00 | 0.00 | 0.00 | 80 | 1013.0 |
| 20260507120230 | 33 | 220 | 0.0 | 0.0 | 0.00 | 0.00 | 0.00 | 80 | 1013.1 |
| 20260507115726 | 32 | 220 | 0.0 | 0.0 | 0.00 | 0.00 | 0.00 | 81 | 1013.1 |
| 20260507115222 | 32 | 220 | 0.0 | 0.0 | 0.00 | 0.00 | 0.00 | 82 | 1012.9 |
| 20260507114717 | 32 | 219 | 0.0 | 1.0 | 0.00 | 0.00 | 0.00 | 82 | 1013.2 |
| 20260507114215 | 31 | 219 | 0.0 | 1.0 | 0.00 | 0.00 | 0.00 | 83 | 1013.0 |
| 20260507113712 | 30 | 219 | 0.0 | 1.0 | 0.00 | 0.00 | 0.00 | 84 | 1013.0 |
| 20260507113209 | 30 | 219 | 0.0 | 1.0 | 0.00 | 0.00 | 0.00 | 85 | 1012.9 |
| 20260507112707 | 30 | 220 | 0.0 | 1.0 | 0.00 | 0.00 | 0.00 | 86 | 1012.9 |
| 20260507112203 | 29 | 220 | 0.0 | 0.0 | 0.00 | 0.00 | 0.00 | 86 | 1012.9 |
| 20260507111701 | 29 | 220 | 0.0 | 0.0 | 0.00 | 0.00 | 0.00 | 86 | 1012.8 |
| 20260507111158 | 29 | 220 | 0.0 | 1.0 | 0.00 | 0.00 | 0.00 | 86 | 1013.0 |
| 20260507110653 | 29 | 221 | 0.0 | 0.0 | 0.00 | 0.00 | 0.00 | 85 | 1012.8 |
| 20260507110151 | 30 | 221 | 0.0 | 0.0 | 0.00 | 0.00 | 0.00 | 85 | 1013.0 |
| 20260507105647 | 30 | 221 | 0.0 | 0.0 | 0.00 | 0.00 | 0.00 | 85 | 1012.9 |
| 20260507105143 | 30 | 221 | 1.0 | 1.0 | 0.00 | 0.00 | 0.00 | 85 | 1012.8 |
| 20260507104641 | 30 | 221 | 0.0 | 1.0 | 0.00 | 0.00 | 0.00 | 85 | 1012.8 |
| 20260507104137 | 30 | 221 | 0.0 | 0.0 | 0.00 | 0.00 | 0.00 | 85 | 1012.8 |
| 20260507103633 | 30 | 220 | 1.0 | 1.0 | 0.00 | 0.00 | 0.00 | 85 | 1013.0 |
| 20260507103130 | 30 | 220 | 0.0 | 0.0 | 0.00 | 0.00 | 0.00 | 84 | 1012.5 |
| 20260507102626 | 30 | 220 | 0.0 | 1.0 | 0.00 | 0.00 | 0.00 | 84 | 1012.8 |
| 20260507102123 | 30 | 220 | 1.0 | 1.0 | 0.00 | 0.00 | 0.00 | 84 | 1012.9 |
| 20260507101619 | 30 | 220 | 0.0 | 0.0 | 0.00 | 0.00 | 0.00 | 84 | 1012.8 |
| 20260507101115 | 30 | 220 | 0.0 | 0.0 | 0.00 | 0.00 | 0.00 | 84 | 1012.6 |
| 20260507100612 | 30 | 220 | 0.0 | 0.0 | 0.00 | 0.00 | 0.00 | 84 | 1012.9 |
| 20260507100110 | 30 | 220 | 0.0 | 0.0 | 0.00 | 0.00 | 0.00 | 83 | 1012.9 |
| 20260507095608 | 30 | 220 | 0.0 | 0.0 | 0.00 | 0.00 | 0.00 | 83 | 1012.6 |
| 20260507095104 | 31 | 220 | 0.0 | 1.0 | 0.00 | 0.00 | 0.00 | 83 | 1012.9 |
| 20260507094600 | 31 | 219 | 0.0 | 0.0 | 0.00 | 0.00 | 0.00 | 83 | 1012.9 |
| 20260507094057 | 31 | 219 | 0.0 | 0.0 | 0.00 | 0.00 | 0.00 | 83 | 1012.9 |
| 20260507093555 | 31 | 219 | 0.0 | 0.0 | 0.00 | 0.00 | 0.00 | 83 | 1012.6 |
| 20260507093054 | 31 | 219 | 0.0 | 0.0 | 0.00 | 0.00 | 0.00 | 82 | 1012.9 |
| 20260507092549 | 31 | 219 | 0.0 | 0.0 | 0.00 | 0.00 | 0.00 | 82 | 1012.8 |
| 20260507092040 | 31 | 219 | 0.0 | 0.0 | 0.00 | 0.00 | 0.00 | 82 | 1012.8 |
| 20260507091537 | 31 | 219 | 0.0 | 0.0 | 0.00 | 0.00 | 0.00 | 82 | 1013.0 |
| 20260507091033 | 31 | 219 | 0.0 | 0.0 | 0.00 | 0.00 | 0.00 | 81 | 1012.8 |
| 20260507090529 | 32 | 219 | 0.0 | 0.0 | 0.00 | 0.00 | 0.00 | 81 | 1012.9 |
| 20260507090026 | 32 | 219 | 0.0 | 0.0 | 0.00 | 0.00 | 0.00 | 80 | 1013.0 |
| 20260507085524 | 32 | 219 | 0.0 | 1.0 | 0.00 | 0.00 | 0.00 | 80 | 1013.1 |
| 20260507085020 | 33 | 219 | 0.0 | 0.0 | 0.00 | 0.00 | 0.00 | 79 | 1013.1 |
| 20260507084517 | 33 | 219 | 0.0 | 0.0 | 0.00 | 0.00 | 0.00 | 79 | 1013.0 |
| 20260507084014 | 33 | 219 | 0.0 | 0.0 | 0.00 | 0.00 | 0.00 | 78 | 1013.1 |
| 20260507083510 | 33 | 219 | 0.0 | 0.0 | 0.00 | 0.00 | 0.00 | 78 | 1013.1 |
| 20260507083007 | 33 | 219 | 0.0 | 0.0 | 0.00 | 0.00 | 0.00 | 78 | 1013.0 |
| 20260507082503 | 33 | 219 | 0.0 | 1.0 | 0.00 | 0.00 | 0.00 | 78 | 1013.0 |
| 20260507081959 | 33 | 219 | 0.0 | 1.0 | 0.00 | 0.00 | 0.00 | 78 | 1013.2 |
| 20260507081455 | 33 | 219 | 0.0 | 1.0 | 0.00 | 0.00 | 0.00 | 78 | 1013.0 |
| 20260507080953 | 33 | 219 | 0.0 | 1.0 | 0.00 | 0.00 | 0.00 | 77 | 1013.0 |
| 20260507080448 | 34 | 219 | 0.0 | 1.0 | 0.00 | 0.00 | 0.00 | 76 | 1013.0 |
| 20260507075944 | 34 | 219 | 0.0 | 0.0 | 0.00 | 0.00 | 0.00 | 76 | 1012.9 |
| 20260507075441 | 34 | 219 | 0.0 | 1.0 | 0.00 | 0.00 | 0.00 | 76 | 1013.1 |
| 20260507074937 | 34 | 219 | 0.0 | 1.0 | 0.00 | 0.00 | 0.00 | 75 | 1013.2 |
| 20260507074434 | 34 | 219 | 0.0 | 0.0 | 0.00 | 0.00 | 0.00 | 75 | 1013.0 |
| 20260507073932 | 34 | 219 | 1.0 | 1.0 | 0.00 | 0.00 | 0.00 | 76 | 1013.0 |
| 20260507073428 | 34 | 219 | 0.0 | 1.0 | 0.00 | 0.00 | 0.00 | 75 | 1013.2 |
| 20260507072925 | 35 | 219 | 0.0 | 1.0 | 0.00 | 0.00 | 0.00 | 74 | 1013.2 |
| 20260507072422 | 35 | 219 | 0.0 | 0.0 | 0.00 | 0.00 | 0.00 | 73 | 1013.2 |
| 20260507071915 | 35 | 219 | 1.0 | 1.0 | 0.00 | 0.00 | 0.00 | 73 | 1013.2 |
| 20260507071411 | 35 | 219 | 1.0 | 1.0 | 0.00 | 0.00 | 0.00 | 72 | 1013.3 |
| 20260507070907 | 35 | 219 | 1.0 | 1.0 | 0.00 | 0.00 | 0.00 | 72 | 1013.2 |
| 20260507070405 | 36 | 220 | 1.0 | 1.0 | 0.00 | 0.00 | 0.00 | 72 | 1013.5 |
| 20260507065901 | 36 | 220 | 0.0 | 1.0 | 0.00 | 0.00 | 0.00 | 71 | 1013.5 |
| 20260507065357 | 36 | 220 | 1.0 | 1.0 | 0.00 | 0.00 | 0.00 | 70 | 1013.5 |
| 20260507064855 | 36 | 220 | 0.0 | 1.0 | 0.00 | 0.00 | 0.00 | 70 | 1013.5 |
| 20260507064353 | 37 | 220 | 0.0 | 0.0 | 0.00 | 0.00 | 0.00 | 69 | 1013.5 |
| 20260507063851 | 37 | 220 | 0.0 | 1.0 | 0.00 | 0.00 | 0.00 | 69 | 1013.6 |
| 20260507063347 | 37 | 220 | 0.0 | 1.0 | 0.00 | 0.00 | 0.00 | 68 | 1013.5 |
| 20260507062844 | 37 | 220 | 0.0 | 0.0 | 0.00 | 0.00 | 0.00 | 68 | 1013.9 |
| 20260507062341 | 37 | 220 | 0.0 | 0.0 | 0.00 | 0.00 | 0.00 | 67 | 1013.8 |
| 20260507061839 | 38 | 220 | 0.0 | 1.0 | 0.00 | 0.00 | 0.00 | 66 | 1013.9 |
| 20260507061337 | 38 | 220 | 0.0 | 1.0 | 0.00 | 0.00 | 0.00 | 66 | 1013.7 |
| 20260507060835 | 38 | 220 | 0.0 | 1.0 | 0.00 | 0.00 | 0.00 | 65 | 1014.0 |
| 20260507060332 | 38 | 220 | 0.0 | 1.0 | 0.00 | 0.00 | 0.00 | 64 | 1014.0 |
| 20260507055828 | 39 | 220 | 0.0 | 0.0 | 0.00 | 0.00 | 0.00 | 64 | 1013.7 |
| 20260507055323 | 39 | 220 | 0.0 | 1.0 | 0.00 | 0.00 | 0.00 | 64 | 1013.7 |
| 20260507054820 | 39 | 220 | 0.0 | 1.0 | 0.00 | 0.00 | 0.00 | 64 | 1013.8 |
| 20260507054316 | 39 | 220 | 0.0 | 1.0 | 0.00 | 0.00 | 0.00 | 64 | 1013.8 |
| 20260507053814 | 39 | 220 | 0.0 | 1.0 | 0.00 | 0.00 | 0.00 | 64 | 1014.0 |
| 20260507053311 | 39 | 221 | 0.0 | 1.0 | 0.00 | 0.00 | 0.00 | 64 | 1013.8 |
| 20260507052810 | 39 | 218 | 1.0 | 1.0 | 0.00 | 0.00 | 0.00 | 63 | 1013.9 |
| 20260507052307 | 39 | 217 | 1.0 | 1.0 | 0.00 | 0.00 | 0.00 | 64 | 1014.0 |
| 20260507051804 | 39 | 222 | 0.0 | 1.0 | 0.00 | 0.00 | 0.00 | 64 | 1014.0 |
| 20260507051302 | 39 | 223 | 0.0 | 1.0 | 0.00 | 0.00 | 0.00 | 63 | 1013.9 |
| 20260507050758 | 39 | 223 | 0.0 | 1.0 | 0.00 | 0.00 | 0.00 | 63 | 1014.1 |
| 20260507050254 | 39 | 223 | 0.0 | 1.0 | 0.00 | 0.00 | 0.00 | 62 | 1013.9 |
| 20260507045751 | 39 | 223 | 0.0 | 0.0 | 0.00 | 0.00 | 0.00 | 63 | 1014.0 |
| 20260507045247 | 39 | 223 | 0.0 | 0.0 | 0.00 | 0.00 | 0.00 | 63 | 1013.9 |
| 20260507044745 | 39 | 223 | 0.0 | 0.0 | 0.00 | 0.00 | 0.00 | 62 | 1014.1 |
| 20260507044241 | 39 | 223 | 0.0 | 1.0 | 0.00 | 0.00 | 0.00 | 62 | 1014.1 |
| 20260507043737 | 39 | 223 | 0.0 | 1.0 | 0.00 | 0.00 | 0.00 | 62 | 1014.0 |
| 20260507043234 | 39 | 223 | 0.0 | 0.0 | 0.00 | 0.00 | 0.00 | 62 | 1014.2 |
| 20260507042731 | 39 | 223 | 0.0 | 1.0 | 0.00 | 0.00 | 0.00 | 62 | 1014.2 |
| 20260507042226 | 39 | 219 | 1.0 | 1.0 | 0.00 | 0.00 | 0.00 | 62 | 1014.3 |
| 20260507041724 | 39 | 223 | 0.0 | 1.0 | 0.00 | 0.00 | 0.00 | 61 | 1014.2 |
| 20260507041221 | 39 | 223 | 0.0 | 1.0 | 0.00 | 0.00 | 0.00 | 61 | 1014.5 |
| 20260507040718 | 39 | 225 | 0.0 | 1.0 | 0.00 | 0.00 | 0.00 | 62 | 1014.3 |
| 20260507040214 | 39 | 226 | 0.0 | 1.0 | 0.00 | 0.00 | 0.00 | 64 | 1014.3 |
| 20260507035710 | 39 | 231 | 1.0 | 1.0 | 0.00 | 0.00 | 0.00 | 63 | 1014.3 |
| 20260507035205 | 39 | 231 | 0.0 | 1.0 | 0.00 | 0.00 | 0.00 | 63 | 1014.4 |
| 20260507034702 | 39 | 231 | 0.0 | 0.0 | 0.00 | 0.00 | 0.00 | 62 | 1014.5 |
| 20260507034200 | 39 | 231 | 0.0 | 1.0 | 0.00 | 0.00 | 0.00 | 62 | 1014.4 |
| 20260507033658 | 39 | 231 | 0.0 | 1.0 | 0.00 | 0.00 | 0.00 | 62 | 1014.4 |
| 20260507033155 | 39 | 232 | 0.0 | 0.0 | 0.00 | 0.00 | 0.00 | 61 | 1014.6 |
| 20260507032653 | 39 | 232 | 0.0 | 1.0 | 0.00 | 0.00 | 0.00 | 61 | 1014.6 |
| 20260507032148 | 38 | 232 | 0.0 | 1.0 | 0.00 | 0.00 | 0.00 | 61 | 1014.6 |
| 20260507031645 | 38 | 232 | 0.0 | 1.0 | 0.00 | 0.00 | 0.00 | 62 | 1014.6 |
| 20260507031142 | 38 | 231 | 1.0 | 1.0 | 0.00 | 0.00 | 0.00 | 61 | 1014.7 |
| 20260507030639 | 38 | 231 | 0.0 | 1.0 | 0.00 | 0.00 | 0.00 | 60 | 1014.8 |
| 20260507030137 | 38 | 231 | 0.0 | 1.0 | 0.00 | 0.00 | 0.00 | 61 | 1014.7 |
| 20260507025633 | 39 | 232 | 0.0 | 0.0 | 0.00 | 0.00 | 0.00 | 60 | 1014.6 |
| 20260507025130 | 39 | 231 | 0.0 | 1.0 | 0.00 | 0.00 | 0.00 | 59 | 1014.7 |
| 20260507024628 | 39 | 232 | 0.0 | 1.0 | 0.00 | 0.00 | 0.00 | 58 | 1014.6 |
| 20260507024125 | 39 | 231 | 0.0 | 1.0 | 0.00 | 0.00 | 0.00 | 58 | 1014.8 |
| 20260507023621 | 40 | 232 | 0.0 | 1.0 | 0.00 | 0.00 | 0.00 | 57 | 1014.6 |
| 20260507023119 | 40 | 232 | 0.0 | 1.0 | 0.00 | 0.00 | 0.00 | 56 | 1014.5 |
| 20260507022615 | 40 | 232 | 0.0 | 0.0 | 0.00 | 0.00 | 0.00 | 55 | 1014.6 |
| 20260507022110 | 41 | 232 | 0.0 | 0.0 | 0.00 | 0.00 | 0.00 | 55 | 1014.6 |
| 20260507021607 | 41 | 232 | 0.0 | 0.0 | 0.00 | 0.00 | 0.00 | 54 | 1014.6 |
| 20260507021103 | 41 | 232 | 0.0 | 1.0 | 0.00 | 0.00 | 0.00 | 54 | 1014.7 |
| 20260507020602 | 41 | 232 | 0.0 | 1.0 | 0.00 | 0.00 | 0.00 | 53 | 1014.6 |
| 20260507020057 | 42 | 247 | 0.0 | 0.0 | 0.00 | 0.00 | 0.00 | 52 | 1014.6 |
| 20260507015556 | 42 | 247 | 0.0 | 1.0 | 0.00 | 0.00 | 0.00 | 52 | 1014.7 |
| 20260507015053 | 42 | 247 | 0.0 | 1.0 | 0.00 | 0.00 | 0.00 | 51 | 1014.6 |
| 20260507014550 | 43 | 247 | 1.0 | 1.0 | 0.00 | 0.00 | 0.00 | 50 | 1014.6 |
| 20260507014045 | 43 | 244 | 1.0 | 1.0 | 0.00 | 0.00 | 0.00 | 49 | 1014.5 |
| 20260507013542 | 43 | 242 | 0.0 | 1.0 | 0.00 | 0.00 | 0.00 | 49 | 1014.5 |
| 20260507013039 | 44 | 247 | 1.0 | 2.0 | 0.00 | 0.00 | 0.00 | 48 | 1014.6 |
| 20260507012536 | 44 | 234 | 1.0 | 3.0 | 0.00 | 0.00 | 0.00 | 48 | 1014.7 |
| 20260507012027 | 44 | 246 | 1.0 | 2.0 | 0.00 | 0.00 | 0.00 | 47 | 1014.6 |
| 20260507011524 | 44 | 245 | 0.0 | 1.0 | 0.00 | 0.00 | 0.00 | 48 | 1014.6 |
| 20260507011020 | 45 | 249 | 1.0 | 2.0 | 0.00 | 0.00 | 0.00 | 48 | 1014.6 |
| 20260507010515 | 45 | 241 | 1.0 | 2.0 | 0.00 | 0.00 | 0.00 | 48 | 1014.7 |
| 20260507010012 | 45 | 241 | 1.0 | 1.0 | 0.00 | 0.00 | 0.00 | 48 | 1014.8 |
| 20260507005509 | 45 | 271 | 1.0 | 3.0 | 0.00 | 0.00 | 0.00 | 48 | 1014.6 |
| 20260507005005 | 45 | 212 | 2.0 | 3.0 | 0.00 | 0.00 | 0.00 | 47 | 1014.8 |
| 20260507004502 | 45 | 304 | 3.0 | 5.0 | 0.00 | 0.00 | 0.00 | 47 | 1014.6 |
| 20260507004000 | 45 | 255 | 1.0 | 1.0 | 0.00 | 0.00 | 0.00 | 48 | 1014.7 |
| 20260507003455 | 45 | 266 | 0.0 | 3.0 | 0.00 | 0.00 | 0.00 | 47 | 1014.8 |
| 20260507002950 | 45 | 253 | 1.0 | 3.0 | 0.00 | 0.00 | 0.00 | 47 | 1014.6 |
| 20260507002447 | 45 | 319 | 2.0 | 5.0 | 0.00 | 0.00 | 0.00 | 47 | 1014.8 |
| 20260507001944 | 45 | 306 | 2.0 | 6.0 | 0.00 | 0.00 | 0.00 | 48 | 1014.8 |
| 20260507001440 | 45 | 270 | 3.0 | 8.0 | 0.00 | 0.00 | 0.00 | 47 | 1014.7 |
| 20260507000938 | 45 | 300 | 2.0 | 3.0 | 0.00 | 0.00 | 0.00 | 47 | 1014.7 |
| 20260507000435 | 45 | 305 | 3.0 | 6.0 | 0.00 | 0.00 | 0.00 | 46 | 1015.0 |
| 20260506235929 | 45 | 230 | 2.0 | 3.0 | 0.00 | 0.00 | 0.00 | 47 | 1014.9 |
| 20260506235427 | 45 | 288 | 1.0 | 7.0 | 0.00 | 0.00 | 0.00 | 48 | 1014.8 |
| 20260506234921 | 45 | 336 | 1.0 | 6.0 | 0.00 | 0.00 | 0.00 | 48 | 1014.8 |
| 20260506234419 | 45 | 257 | 3.0 | 5.0 | 0.00 | 0.00 | 0.00 | 47 | 1014.9 |
| 20260506233912 | 45 | 304 | 2.0 | 5.0 | 0.00 | 0.00 | 0.00 | 47 | 1014.9 |
| 20260506233407 | 45 | 273 | 2.0 | 5.0 | 0.00 | 0.00 | 0.00 | 47 | 1014.8 |
| 20260506232905 | 45 | 325 | 3.0 | 5.0 | 0.00 | 0.00 | 0.00 | 48 | 1015.1 |
| 20260506232401 | 45 | 310 | 1.0 | 2.0 | 0.00 | 0.00 | 0.00 | 48 | 1015.1 |
| 20260506231856 | 45 | 249 | 1.0 | 3.0 | 0.00 | 0.00 | 0.00 | 48 | 1015.0 |
| 20260506231354 | 45 | 254 | 1.0 | 2.0 | 0.00 | 0.00 | 0.00 | 48 | 1015.0 |
| 20260506230852 | 45 | 260 | 3.0 | 3.0 | 0.00 | 0.00 | 0.00 | 48 | 1015.3 |
| 20260506230348 | 44 | 269 | 1.0 | 3.0 | 0.00 | 0.00 | 0.00 | 48 | 1015.0 |
| 20260506225844 | 44 | 280 | 2.0 | 5.0 | 0.00 | 0.00 | 0.00 | 47 | 1015.1 |
| 20260506225342 | 44 | 289 | 2.0 | 7.0 | 0.00 | 0.00 | 0.00 | 48 | 1015.1 |
| 20260506224839 | 45 | 300 | 2.0 | 3.0 | 0.00 | 0.00 | 0.00 | 48 | 1015.1 |
| 20260506224336 | 45 | 287 | 3.0 | 5.0 | 0.00 | 0.00 | 0.00 | 48 | 1015.1 |
| 20260506223832 | 45 | 313 | 1.0 | 7.0 | 0.00 | 0.00 | 0.00 | 48 | 1015.1 |
| 20260506223327 | 45 | 281 | 2.0 | 3.0 | 0.00 | 0.00 | 0.00 | 47 | 1015.2 |
| 20260506222825 | 44 | 233 | 1.0 | 3.0 | 0.00 | 0.00 | 0.00 | 48 | 1015.2 |
| 20260506222320 | 44 | 270 | 3.0 | 3.0 | 0.00 | 0.00 | 0.00 | 48 | 1015.3 |
| 20260506221818 | 44 | 331 | 3.0 | 6.0 | 0.00 | 0.00 | 0.00 | 49 | 1015.2 |
| 20260506221316 | 44 | 249 | 2.0 | 3.0 | 0.00 | 0.00 | 0.00 | 48 | 1015.1 |
| 20260506220813 | 44 | 237 | 1.0 | 5.0 | 0.00 | 0.00 | 0.00 | 49 | 1015.1 |
| 20260506220308 | 45 | 305 | 2.0 | 3.0 | 0.00 | 0.00 | 0.00 | 49 | 1015.4 |
| 20260506215805 | 44 | 247 | 1.0 | 2.0 | 0.00 | 0.00 | 0.00 | 50 | 1015.2 |
| 20260506215301 | 44 | 199 | 2.0 | 6.0 | 0.00 | 0.00 | 0.00 | 49 | 1015.6 |
| 20260506214756 | 44 | 317 | 2.0 | 7.0 | 0.00 | 0.00 | 0.00 | 49 | 1015.3 |
| 20260506214254 | 44 | 260 | 2.0 | 3.0 | 0.00 | 0.00 | 0.00 | 49 | 1015.3 |
| 20260506213752 | 44 | 260 | 3.0 | 5.0 | 0.00 | 0.00 | 0.00 | 49 | 1015.4 |
| 20260506213249 | 44 | 268 | 1.0 | 3.0 | 0.00 | 0.00 | 0.00 | 49 | 1015.4 |
| 20260506212746 | 44 | 303 | 3.0 | 6.0 | 0.00 | 0.00 | 0.00 | 49 | 1015.6 |
| 20260506212242 | 44 | 325 | 3.0 | 10.0 | 0.00 | 0.00 | 0.00 | 49 | 1015.5 |
| 20260506211737 | 44 | 279 | 3.0 | 3.0 | 0.00 | 0.00 | 0.00 | 49 | 1015.5 |
| 20260506211234 | 44 | 287 | 4.0 | 5.0 | 0.00 | 0.00 | 0.00 | 48 | 1015.5 |